Vorticity
nan nan nan nan nan nan nan nan nan nan nan nan nan nan nan nan nan nan nan nan nan nan nan nan nan nan nan nan nan nan nan nan nan nan nan nan nan nan nan nan nan nan nan nan nan nan nan
nan 6 6 6 6 7 8 8 8 9 8 7 9 7 5 7 14 24 15 8 6 6 6 6 8 9 11 5 7 8 10 10 16 13 8 6 6 4 11 10 7 7 6 5 7 7 nan
nan 5 5 5 6 6 6 6 7 8 8 7 8 11 6 6 7 24 22 9 6 6 6 6 8 8 6 11 3 6 10 9 13 16 7 7 12 10 6 8 9 4 7 11 15 13 nan
nan 6 4 6 6 5 6 6 7 6 8 8 9 10 10 9 8 14 23 16 8 7 7 8 5 6 7 11 7 8 8 8 10 14 12 8 5 9 6 7 7 7 8 10 9 13 nan
nan 4 6 8 8 6 6 7 7 8 8 9 7 9 12 10 11 6 19 23 10 9 6 4 5 5 9 9 11 11 10 7 4 7 12 9 6 6 8 5 8 7 5 5 0 10 nan
nan 7 7 8 8 7 8 7 8 10 8 9 8 10 11 10 13 11 22 26 8 3 3 2 6 10 12 9 10 10 13 9 6 5 3 5 7 6 5 5 3 10 10 4 7 4 nan
nan 8 6 7 5 7 8 9 9 9 10 10 11 9 10 8 7 11 24 16 4 8 8 6 5 6 10 9 9 11 10 7 9 5 3 6 5 6 7 3 -1 2 7 6 6 -3 nan
nan 7 5 7 8 8 8 10 9 8 10 10 10 8 8 7 8 15 14 7 4 4 12 9 4 5 6 6 9 12 8 8 8 8 4 7 11 8 9 11 8 2 3 4 4 6 nan
nan 7 9 7 8 8 10 9 8 10 12 10 9 7 4 5 12 18 14 9 4 5 9 16 6 5 7 8 9 14 6 7 11 10 5 -2 5 18 15 6 8 7 9 7 4 8 nan
nan 8 9 8 9 10 9 9 8 10 10 8 11 9 8 13 20 17 16 13 4 8 12 15 11 12 10 7 13 13 7 3 12 11 7 8 8 9 9 6 7 9 15 12 10 9 nan
nan 8 8 10 11 9 9 10 8 10 9 7 14 17 16 22 13 12 18 13 9 14 12 8 10 13 15 5 7 11 9 6 11 10 4 8 16 11 6 8 6 13 10 9 8 6 nan
nan 10 10 8 9 11 10 10 9 10 9 7 10 12 25 33 8 9 11 5 11 13 11 7 10 12 12 7 1 11 8 6 12 8 5 5 3 11 12 14 6 4 11 9 10 14 nan
nan 9 10 10 11 10 11 9 9 10 8 7 11 12 29 22 12 14 6 4 7 13 14 10 12 14 8 11 7 8 11 7 3 8 12 14 8 6 11 8 13 4 5 11 14 9 nan
nan 7 10 10 11 11 12 9 10 10 8 9 9 29 32 10 14 10 4 5 9 12 13 13 16 7 8 9 6 11 8 7 4 1 9 12 19 16 8 7 10 14 0 2 3 -1 nan
nan 8 10 11 10 12 11 11 10 11 7 8 28 33 15 14 10 5 8 9 11 11 16 11 6 2 12 7 8 10 7 9 14 7 0 8 7 14 12 12 7 7 10 4 7 10 nan
nan 12 10 10 11 11 10 10 11 10 7 20 30 12 14 19 10 7 7 8 13 19 15 2 2 12 13 9 6 10 6 9 14 13 2 4 12 11 11 9 12 5 6 14 10 12 nan
nan 11 12 10 11 11 11 9 11 9 10 27 25 11 14 10 5 7 9 10 17 14 -0 6 12 15 14 13 8 6 4 10 15 17 11 1 9 7 7 12 9 4 2 -1 6 10 nan
nan 9 10 11 11 11 9 11 10 8 18 26 17 11 15 4 2 8 9 11 12 4 3 10 9 15 15 9 10 8 5 9 17 13 12 6 5 9 8 13 12 6 9 1 1 7 nan
nan 10 8 11 12 11 8 9 10 10 24 25 12 9 10 13 8 10 8 9 11 8 9 11 11 11 13 10 9 10 6 15 13 5 10 7 2 8 13 8 14 13 12 9 0 7 nan
nan 11 9 10 11 11 9 9 9 7 24 31 14 8 7 13 13 14 7 8 7 9 11 12 11 9 10 8 9 11 7 11 13 7 9 6 4 4 -1 -4 4 6 6 9 9 4 nan
nan 11 9 9 10 10 9 8 10 8 25 28 11 11 13 9 12 11 8 11 10 4 7 9 8 8 7 8 10 10 11 8 10 15 9 5 8 13 3 1 1 5 6 12 16 10 nan
nan 10 10 10 10 10 9 9 10 9 27 25 11 9 9 13 13 8 9 10 4 9 9 9 10 11 7 6 5 8 11 8 10 13 8 4 7 12 15 18 13 17 18 18 16 23 nan
nan 9 10 11 11 10 8 9 9 12 25 20 9 10 13 14 10 6 8 11 9 5 7 11 12 9 9 11 9 8 6 5 8 10 8 5 9 9 9 8 22 24 15 12 21 20 nan
nan 9 9 10 11 9 8 9 9 11 21 21 10 11 12 13 13 10 9 10 11 4 4 9 13 8 9 13 14 15 15 11 9 7 5 4 6 6 6 13 16 7 12 14 13 17 nan
nan 11 12 11 10 10 10 8 9 9 18 22 13 10 11 15 12 11 10 8 6 7 9 11 9 10 9 5 11 12 12 16 21 19 13 4 -1 7 11 12 9 8 8 16 15 11 nan
nan 13 12 11 12 11 10 8 8 8 17 24 15 11 10 12 18 13 9 6 7 8 11 12 12 12 8 9 10 9 9 11 13 16 20 20 12 3 5 9 9 7 8 20 11 5 nan
nan 11 13 14 12 9 9 7 8 9 16 24 13 11 12 10 15 15 15 9 9 9 8 13 13 11 10 9 9 10 9 10 11 11 10 12 15 11 7 7 8 5 12 16 6 8 nan
nan 10 11 11 11 10 8 8 9 9 15 22 16 9 10 12 9 12 13 10 9 11 11 9 9 11 12 10 9 10 10 9 8 11 13 9 7 12 11 8 11 7 11 9 11 11 nan
nan nan nan nan nan nan nan nan nan nan nan nan nan nan nan nan nan nan nan nan nan nan nan nan nan nan nan nan nan nan nan nan nan nan nan nan nan nan nan nan nan nan nan nan nan nan nan
CAPE
21 23 24 24 20 18 30 15 17 21 28 22 20 9 16 59 91 117 54 20 1 0 0 0 3 2 3 5 3 0 0 0 0 59 40 3 0 0 2 0 0 0 0 0 0 0 0
19 19 16 23 26 26 27 26 34 34 31 43 32 12 18 6 49 98 100 39 4 0 0 0 0 2 0 0 0 0 0 0 4 31 50 25 5 0 1 1 0 1 0 0 0 0 0
15 22 20 19 23 38 43 37 31 41 40 54 56 51 27 10 25 60 120 64 12 0 0 0 0 0 0 0 0 0 0 0 0 34 59 16 0 0 7 11 7 2 0 0 0 0 0
32 39 50 53 50 42 25 17 28 40 48 55 59 52 39 27 16 17 79 116 71 40 0 0 0 0 0 0 0 0 0 0 0 6 44 26 21 10 11 1 2 0 0 0 0 0 0
53 58 51 65 85 89 66 45 39 20 46 64 73 63 63 48 46 20 56 150 98 62 28 20 0 0 0 0 0 0 0 0 0 0 0 41 25 13 10 11 7 3 0 0 0 0 0
55 32 39 63 78 96 68 84 90 92 47 68 95 110 77 72 38 51 22 116 74 59 56 51 5 1 0 0 0 0 0 0 0 0 0 4 2 8 0 3 0 0 0 0 0 0 0
36 28 48 49 71 89 81 84 88 92 110 112 128 126 111 72 51 44 22 1 0 1 11 0 1 0 0 0 0 0 0 0 0 10 14 8 13 1 0 0 0 0 0 1 1 0 0
38 62 76 72 56 84 78 102 118 108 126 158 169 124 153 83 75 32 63 10 0 0 1 0 0 0 0 0 0 0 0 0 0 7 12 8 5 0 0 0 4 6 6 3 0 0 0
59 67 73 67 74 89 93 119 120 102 96 138 144 120 114 84 61 43 50 53 0 0 0 0 0 0 0 0 0 0 0 0 0 3 1 1 0 0 0 3 10 9 7 2 0 0 0
60 54 59 68 93 83 94 118 93 82 46 101 120 137 139 97 57 25 36 47 0 0 7 0 5 0 1 4 0 0 0 0 0 0 5 7 1 0 0 2 1 1 0 0 0 2 1
63 58 73 83 87 88 110 125 88 57 68 110 174 240 166 125 45 35 48 2 0 0 13 0 16 10 12 0 0 5 0 2 6 0 0 0 0 4 6 0 1 1 1 1 5 9 3
55 69 65 72 86 97 118 104 81 44 86 99 150 74 144 116 89 4 44 0 9 14 1 19 21 41 29 11 11 13 11 18 9 7 5 3 0 0 3 0 1 1 8 9 11 21 17
49 71 76 72 92 115 112 107 86 33 107 97 65 60 111 73 8 45 39 11 3 19 0 18 13 38 17 16 36 19 27 20 13 21 21 8 8 4 1 8 7 15 28 12 14 24 1
62 59 77 93 111 118 109 110 88 42 42 66 58 74 100 40 98 79 47 0 12 1 4 7 18 27 17 10 13 12 23 19 21 9 13 9 2 5 6 8 5 15 17 10 1 0 0
59 75 80 98 121 120 124 100 80 25 116 78 88 95 139 151 143 80 5 17 4 0 1 4 10 9 3 4 1 7 10 7 3 8 5 10 0 0 3 1 7 21 18 1 22 23 30
70 81 93 101 123 123 122 87 57 18 100 97 25 126 92 126 87 27 3 15 0 0 0 2 2 1 3 3 3 2 1 0 3 7 6 6 8 0 1 1 6 16 7 12 38 8 1
61 78 86 104 129 129 107 73 19 24 66 68 12 73 77 132 8 0 5 5 8 0 0 0 0 3 2 4 4 2 2 0 0 0 18 7 1 2 5 9 3 7 20 34 6 16 12
61 76 82 102 118 112 86 26 16 36 56 19 14 32 41 68 1 6 4 16 7 0 0 0 0 0 0 1 2 5 0 0 0 0 5 2 11 15 1 0 0 0 1 9 30 0 9
56 77 73 91 107 87 63 7 14 39 68 9 30 24 20 65 11 19 6 15 0 0 0 0 0 0 0 0 0 3 2 0 0 0 0 8 24 5 0 0 0 7 0 0 19 13 20
50 68 77 79 89 66 49 9 7 23 29 76 17 11 1 1 10 5 29 16 3 0 0 0 0 0 0 2 0 9 2 0 0 0 0 8 12 0 0 0 3 20 2 2 6 17 3
50 61 81 72 76 63 42 8 8 24 19 33 16 18 8 25 25 19 20 11 4 1 0 0 0 0 0 1 2 11 0 0 0 0 2 3 22 5 0 0 0 5 10 9 2 4 9
50 55 61 71 60 49 39 11 7 37 26 10 9 36 10 1 0 18 5 3 0 0 0 0 0 0 1 0 0 5 2 2 7 1 3 8 16 24 8 0 3 4 6 5 2 3 2
53 51 54 38 67 36 23 23 5 22 29 22 13 10 34 10 8 19 9 1 0 0 0 0 0 1 5 0 0 1 7 4 10 14 19 9 11 8 16 0 2 8 8 6 6 2 5
37 27 44 44 64 30 24 21 3 10 39 24 25 22 15 20 12 7 3 0 0 0 1 3 1 5 3 0 0 2 2 20 29 14 15 17 7 12 29 4 8 7 1 2 3 6 2
50 49 48 32 56 37 21 16 1 6 20 15 11 9 10 12 11 9 7 5 1 0 0 9 10 1 16 10 9 27 18 15 4 0 0 6 10 38 42 12 0 0 0 0 1 3 1
28 41 44 39 59 34 15 8 0 8 14 13 2 9 17 24 12 5 18 4 7 8 12 10 7 7 15 25 25 15 1 0 3 7 0 0 4 22 26 4 6 0 0 0 0 5 0
12 23 36 43 41 19 28 4 0 5 21 17 1 11 7 49 9 3 17 13 5 15 11 1 6 21 19 16 18 31 12 3 4 2 14 8 10 9 13 8 0 0 0 0 0 0 0
9 12 22 32 37 39 20 5 1 5 20 7 0 2 8 7 13 1 2 0 0 4 2 4 4 10 15 18 29 11 5 13 2 0 3 3 6 20 18 17 0 0 0 0 0 0 0
7 5 9 12 10 6 7 5 2 6 13 6 10 0 4 7 28 0 0 0 0 0 0 0 2 3 11 26 19 44 18 15 0 9 0 1 0 2 0 0 0 0 0 0 0 0 0